DW7346 Weather Reports


Display with metric or nautical units.
time (UTC)temp
F
wind
direction
speed
MPH
gust
MPH
rain 1hr
in
rain 24hr
in
rain mn
in
humidity
%
barometer
mb
20260831183101 97 212 2.0 9.0 0.00 0.00 0.00 46 1012.8
20260831181550 98 212 1.0 5.0 0.00 0.00 0.00 46 1013.2
20260831180048 98 142 2.0 7.0 0.00 0.00 0.00 48 1013.5
20260831174549 97 219 1.0 7.0 0.00 0.00 0.00 49 1013.7
20260831173054 96 122 2.0 9.0 0.00 0.00 0.00 48 1013.9
20260831171537 96 205 1.0 8.0 0.00 0.00 0.00 50 1014.1
20260831170034 94 137 3.0 8.0 0.00 0.00 0.00 48 1014.2
20260831164534 94 196 2.0 5.0 0.00 0.00 0.00 50 1014.1
20260831163027 93 250 2.0 5.0 0.00 0.00 0.00 51 1014.2
20260831161523 92 212 1.0 8.0 0.00 0.00 0.00 54 1014.3
20260831160027 91 167 1.0 6.0 0.00 0.00 0.00 55 1014.4
20260831154519 89 257 2.0 10.0 0.00 0.00 0.00 57 1014.4
20260831153015 89 251 3.0 7.0 0.00 0.00 0.00 58 1014.2
20260831151510 88 215 2.0 6.0 0.00 0.00 0.00 62 1014.2
20260831150013 87 238 1.0 7.0 0.00 0.00 0.00 64 1014.1
20260831144512 86 214 2.0 9.0 0.00 0.00 0.00 65 1014.0
20260831143003 85 232 2.0 7.0 0.00 0.00 0.00 66 1014.0
20260831141501 85 158 4.0 7.0 0.00 0.00 0.00 68 1014.1
20260831140100 84 197 1.0 9.0 0.00 0.00 0.00 70 1014.1
20260831134559 83 227 1.0 3.0 0.00 0.00 0.00 73 1013.9
20260831133055 82 214 0.0 4.0 0.00 0.00 0.00 74 1013.7
20260831131552 81 234 1.0 5.0 0.00 0.00 0.00 76 1013.5
20260831130052 81 116 1.0 5.0 0.00 0.00 0.00 76 1013.2
20260831124549 80 252 2.0 4.0 0.00 0.00 0.00 77 1012.9
20260831123047 79 106 0.0 2.0 0.00 0.00 0.00 78 1012.8
20260831121545 79 169 0.0 2.0 0.00 0.00 0.00 77 1012.5
20260831120043 80 167 0.0 3.0 0.00 0.00 0.00 77 1012.4
20260831114541 80 167 0.0 1.0 0.00 0.00 0.00 76 1012.3
20260831113039 80 174 0.0 2.0 0.00 0.00 0.00 75 1012.2
20260831111555 81 179 0.0 2.0 0.00 0.00 0.00 74 1012.0
20260831110043 81 193 0.0 3.0 0.00 0.00 0.00 73 1011.9
20260831104534 81 191 1.0 3.0 0.00 0.00 0.00 72 1011.8
20260831103029 82 160 0.0 3.0 0.00 0.00 0.00 71 1011.9
20260831101528 82 188 0.0 4.0 0.00 0.00 0.00 69 1011.8
20260831100025 83 181 0.0 4.0 0.00 0.00 0.00 68 1011.7
20260831094526 83 209 2.0 5.0 0.00 0.00 0.00 67 1011.6
20260831093020 84 185 1.0 6.0 0.00 0.00 0.00 66 1011.6
20260831091519 84 223 2.0 6.0 0.00 0.00 0.00 65 1011.5
20260831090018 84 195 3.0 7.0 0.00 0.00 0.00 64 1011.4
20260831084531 84 200 3.0 8.0 0.00 0.00 0.00 64 1011.4
20260831083014 85 210 2.0 6.0 0.00 0.00 0.00 63 1011.4
20260831081520 85 182 2.0 8.0 0.00 0.00 0.00 62 1011.5
20260831080011 85 238 3.0 8.0 0.00 0.00 0.00 60 1011.4
20260831074530 86 217 3.0 8.0 0.00 0.00 0.00 59 1011.3
20260831073020 86 224 3.0 9.0 0.00 0.00 0.00 58 1011.2
20260831071509 86 255 2.0 7.0 0.00 0.00 0.00 57 1011.1
20260831070009 86 234 2.0 5.0 0.00 0.00 0.00 58 1011.1
20260831064520 86 207 1.0 5.0 0.00 0.00 0.00 58 1011.2
20260831063014 85 179 0.0 2.0 0.00 0.00 0.00 58 1011.3
20260831061506 85 158 0.0 3.0 0.00 0.00 0.00 58 1011.2
20260831060004 85 122 0.0 0.0 0.00 0.00 0.00 59 1011.2
20260831054504 85 105 0.0 0.0 0.00 0.00 0.00 59 1011.3
20260831053007 85 105 0.0 1.0 0.00 0.00 0.00 59 1011.3
20260831051600 86 105 0.0 2.0 0.00 0.00 0.00 58 1011.1
20260831050137 86 105 0.0 0.0 0.00 0.00 0.00 57 1011.0
20260831044558 86 105 0.0 0.0 0.00 0.00 0.00 57 1011.0
20260831043055 87 105 0.0 0.0 0.00 0.00 0.00 56 1011.0
20260831041556 88 105 0.0 2.0 0.00 0.00 0.00 55 1010.9
20260831040055 88 105 0.0 1.0 0.00 0.00 0.00 54 1010.9
20260831034552 89 105 0.0 1.0 0.00 0.00 0.00 53 1010.9
20260831033051 90 105 0.0 3.0 0.00 0.00 0.00 51 1010.8
20260831031554 90 101 0.0 3.0 0.00 0.00 0.00 50 1010.7
20260831030054 91 124 1.0 4.0 0.00 0.00 0.00 50 1010.5
20260831024548 91 115 1.0 4.0 0.00 0.00 0.00 49 1010.4
20260831023046 91 103 0.0 0.0 0.00 0.00 0.00 49 1010.3
20260831021547 92 109 0.0 3.0 0.00 0.00 0.00 48 1010.1
20260831020045 92 106 0.0 4.0 0.00 0.00 0.00 47 1009.7
20260831014549 92 105 0.0 2.0 0.00 0.00 0.00 46 1009.5
20260831013044 93 113 0.0 3.0 0.00 0.00 0.00 44 1009.4
20260831011544 94 110 0.0 2.0 0.00 0.00 0.00 42 1009.2
20260831010043 95 148 0.0 1.0 0.00 0.00 0.00 41 1009.2
20260831004545 96 144 0.0 3.0 0.00 0.00 0.00 40 1009.1
20260831003041 97 124 0.0 5.0 0.00 0.00 0.00 39 1009.0
20260831001539 98 131 1.0 4.0 0.00 0.00 0.00 38 1009.1
20260831000052 99 148 1.0 7.0 0.00 0.00 0.00 37 1009.2
20260830234546 99 110 1.0 6.0 0.00 0.00 0.00 37 1009.3
20260830233053 100 189 1.0 7.0 0.00 0.00 0.00 35 1009.2
20260830231535 101 174 1.0 6.0 0.00 0.00 0.00 34 1009.2
20260830230034 101 94 2.0 7.0 0.00 0.00 0.00 34 1009.4
20260830224533 101 96 2.0 6.0 0.00 0.00 0.00 34 1009.4
20260830223032 102 88 2.0 6.0 0.00 0.00 0.00 34 1009.5
20260830221532 101 136 2.0 6.0 0.00 0.00 0.00 37 1009.5
20260830220052 101 224 1.0 6.0 0.00 0.00 0.00 36 1009.5
20260830214528 101 170 1.0 7.0 0.00 0.00 0.00 36 1009.6
20260830213029 101 139 1.0 6.0 0.00 0.00 0.00 37 1009.7
20260830211528 101 178 1.0 7.0 0.00 0.00 0.00 38 1009.8
20260830210025 101 116 2.0 10.0 0.00 0.00 0.00 38 1010.0
20260830204520 100 242 3.0 8.0 0.00 0.00 0.00 38 1010.2
20260830203019 101 190 4.0 11.0 0.00 0.00 0.00 37 1010.3
20260830201517 101 148 3.0 9.0 0.00 0.00 0.00 38 1010.6
20260830200018 101 167 3.0 8.0 0.00 0.00 0.00 39 1010.8
20260830194513 101 259 3.0 8.0 0.00 0.00 0.00 39 1011.0
20260830193010 100 219 1.0 9.0 0.00 0.00 0.00 41 1011.1
20260830191528 100 176 2.0 8.0 0.00 0.00 0.00 43 1011.3
20260830190006 99 253 2.0 9.0 0.00 0.00 0.00 42 1011.5
20260830184504 99 186 3.0 8.0 0.00 0.00 0.00 42 1011.7